Springfield, MO

8:32 PM CDT on September 19, 2017 (GMT -0500)
Springfield-Branson Regional

Weather History for KSGF - March, 2014

Change the Weather History Date:

Thursday, March 13, 2014

  Actual Average Record
Temperature  
Mean Temperature 48 °F 46 °F  
Max Temperature 66 °F 57 °F 82 °F (1967)
Min Temperature 30 °F 34 °F 6 °F (1968)
Degree Days  
Heating Degree Days 17 20  
Month to date heating degree days 279  
Since 1 July heating degree days 3872  
Cooling Degree Days 0 0  
Month to date cooling degree days 0  
Year to date cooling degree days 0  
Moisture  
Dew Point 23 °F    
Average Humidity 42    
Maximum Humidity 73    
Minimum Humidity 10    
Precipitation  
Precipitation 0.00 in 0.11 in 1.86 in (1990)
Month to date precipitation 1.40  
Year to date precipitation 6.39  
Snow  
Snow 0.00 in - - ()
Month to date snowfall  
Since 1 July snowfall  
Snow Depth -    
Sea Level Pressure  
Sea Level Pressure 30.09 in    
Wind  
Wind Speed 8 mph (SW)    
Max Wind Speed 21 mph    
Max Gust Speed 29 mph    
Visibility 10 miles    
Events      
T = Trace of Precipitation, MM = Missing Value Source: NWS Daily Summary

Daily Weather History Graph

Daily Weather History Graph

Search for Another Location

Airport or City:

Trip Planner

Search our weather history database for the weather conditions in past years. The results will help you decide how hot, cold, wet, or windy it might be!

Date:

Astronomy

Mar. 13, 2014 Rise Set
Actual Time 7:27 AM CDT 7:19 PM CDT
Civil Twilight 7:01 AM CDT 7:45 PM CDT
Nautical Twilight 6:31 AM CDT 8:15 PM CDT
Astronomical Twilight 6:00 AM CDT 8:45 PM CDT
Moon 4:48 PM CDT (3/13) 5:31 AM CDT (3/13)
Length of Visible Light 12h 43m
Length of Day
11h 51m
Waxing Gibbous, 91% of the Moon is Illuminated
Mar 13
Waxing Gibbous
Mar 16
Full
Mar 23
Last Quarter
Mar 30
New
Apr 7
First Quarter

Hourly Weather History & Observations

Time (CDT) Temp. Windchill Dew Point Humidity Pressure Visibility Wind Dir Wind Speed Gust Speed Precip Events Conditions
12:52 AM 35.1 °F 32.2 °F 23.0 °F 61% 30.17 in 10.0 mi SSW 3.5 mph - N/A   Clear
1:52 AM 32.0 °F 27.5 °F 24.1 °F 73% 30.16 in 10.0 mi SW 4.6 mph - N/A   Clear
2:52 AM 32.0 °F 25.6 °F 24.1 °F 73% 30.15 in 10.0 mi SW 6.9 mph - N/A   Clear
3:52 AM 32.0 °F 24.8 °F 24.1 °F 73% 30.14 in 10.0 mi SW 8.1 mph - N/A   Clear
4:52 AM 32.0 °F 24.8 °F 24.1 °F 73% 30.14 in 10.0 mi SW 8.1 mph - N/A   Clear
5:52 AM 32.0 °F 24.8 °F 24.1 °F 73% 30.14 in 10.0 mi SW 8.1 mph - N/A   Clear
6:52 AM 30.9 °F 22.8 °F 23.0 °F 72% 30.15 in 10.0 mi SSW 9.2 mph - N/A   Clear
7:52 AM 34.0 °F 26.6 °F 25.0 °F 70% 30.16 in 10.0 mi SSW 9.2 mph - N/A   Clear
8:52 AM 42.1 °F 37.1 °F 28.0 °F 58% 30.16 in 10.0 mi SW 8.1 mph - N/A   Clear
9:52 AM 50.0 °F - 28.0 °F 43% 30.17 in 10.0 mi WSW 12.7 mph - N/A   Clear
10:52 AM 57.0 °F - 25.0 °F 29% 30.15 in 10.0 mi North - - N/A   Clear
11:52 AM 60.1 °F - 21.0 °F 22% 30.14 in 10.0 mi North - - N/A   Clear
12:52 PM 62.1 °F - 19.9 °F 20% 30.12 in 10.0 mi WSW 12.7 mph 21.9 mph N/A   Clear
1:52 PM 64.0 °F - 19.0 °F 18% 30.09 in 10.0 mi WSW 20.7 mph 26.5 mph N/A   Clear
2:52 PM 64.9 °F - 19.0 °F 17% 30.06 in 10.0 mi WSW 18.4 mph 28.8 mph N/A   Clear
3:52 PM 64.9 °F - 18.0 °F 16% 30.04 in 10.0 mi North - - N/A   Clear
4:52 PM 64.0 °F - 21.0 °F 19% 30.03 in 10.0 mi North - - N/A   Clear
5:52 PM 64.0 °F - 19.0 °F 18% 30.01 in 10.0 mi WSW 17.3 mph 24.2 mph N/A   Clear
6:52 PM 59.0 °F - 23.0 °F 25% 30.00 in 10.0 mi SW 8.1 mph - N/A   Clear
7:52 PM 50.0 °F - 23.0 °F 35% 30.00 in 10.0 mi SSW 8.1 mph - N/A   Clear
8:52 PM 51.1 °F - 24.1 °F 35% 29.99 in 10.0 mi South 11.5 mph - N/A   Clear
9:52 PM 48.0 °F - 24.1 °F 39% 29.98 in 10.0 mi SSW 10.4 mph - N/A   Clear
10:52 PM 48.9 °F - 24.1 °F 38% 29.97 in 10.0 mi South 12.7 mph - N/A   Clear
11:52 PM 48.9 °F - 24.1 °F 38% 29.96 in 10.0 mi South 11.5 mph - N/A   Clear